Probability
87 94 100 100 97 100 100 100 100 100 100 100 100 100 97 94 90 97 81 81 77 77 71 71 65 71 65 61 61 74 74 71 68 74 71 77 74 84 84 84 94 84 90
97 97 100 100 100 100 100 100 100 100 100 100 100 100 97 94 100 97 94 87 81 84 84 81 81 77 71 65 65 71 68 68 74 68 74 77 81 77 84 87 90 90 94
97 97 100 100 100 100 100 100 97 100 100 100 100 100 97 100 100 90 87 87 84 87 84 84 90 81 81 74 61 58 65 65 71 68 71 55 65 71 87 84 90 90 97
87 97 100 100 100 100 100 100 100 100 97 100 100 100 100 97 97 90 81 84 90 87 87 84 84 81 81 71 65 71 74 71 71 58 48 42 29 71 81 87 90 94 87
84 94 100 100 100 100 100 100 100 100 97 97 97 97 97 97 97 94 90 90 90 94 94 90 81 87 81 71 68 74 61 65 71 52 48 52 61 87 90 90 94 90 87
97 97 100 100 100 100 100 100 100 97 97 97 97 97 97 97 97 94 90 90 97 97 84 84 84 84 74 71 58 55 58 55 65 42 58 58 74 90 94 94 87 94 94
97 100 100 100 100 100 100 100 100 100 100 100 97 97 97 97 100 97 97 94 94 87 87 87 87 87 74 65 55 48 48 58 65 58 58 74 84 87 87 90 90 90 90
97 100 100 100 100 100 100 100 100 100 97 100 100 100 100 100 97 90 94 90 87 84 87 94 87 84 84 74 61 52 52 71 48 55 68 71 84 87 87 87 90 90 84
97 97 100 100 100 100 100 100 100 100 100 100 100 100 100 97 100 97 97 94 84 81 87 87 87 81 77 84 61 48 65 84 58 55 48 61 84 87 81 77 81 81 81
100 97 100 100 100 100 100 100 100 100 100 100 100 100 97 97 100 97 94 90 84 74 71 87 81 68 71 74 68 65 84 87 26 52 58 74 87 84 81 81 81 84 81
97 97 100 100 100 100 100 100 100 100 100 100 100 100 97 94 90 94 97 87 77 71 58 61 68 68 77 74 71 74 58 55 29 55 61 90 90 84 81 77 77 77 81
97 97 100 100 100 97 97 100 100 100 100 97 97 97 100 100 100 94 100 97 81 74 61 68 71 74 74 74 61 77 61 52 39 61 71 90 87 84 81 74 77 77 77
90 94 94 97 97 97 97 100 100 100 100 97 97 97 100 100 100 94 84 87 90 84 77 87 84 61 84 81 77 68 61 39 45 55 77 87 87 87 84 74 71 77 81
90 90 94 97 100 100 100 100 100 100 97 97 100 97 97 97 94 94 94 90 94 94 90 87 94 94 94 87 84 84 71 52 61 65 81 87 87 87 84 77 74 74 81
87 87 90 100 97 97 97 97 100 100 100 100 100 94 87 90 90 90 90 94 94 94 94 87 94 84 90 84 90 81 74 68 81 68 74 90 87 87 87 87 81 68 74
87 94 90 87 90 90 97 97 97 100 97 90 97 90 84 84 94 90 94 94 87 90 87 90 94 90 97 94 84 68 77 71 81 77 71 87 97 90 94 94 90 84 84
87 90 90 87 87 90 90 90 97 97 84 84 90 87 84 84 87 84 87 84 84 81 81 81 77 87 87 81 74 71 74 87 81 77 68 65 77 90 90 90 90 87 87
87 77 81 84 87 81 87 90 94 94 81 84 87 84 77 77 71 77 81 77 77 77 81 81 77 81 81 74 81 77 81 77 71 68 61 71 58 52 84 87 87 87 77
84 74 77 87 87 81 84 87 94 97 90 87 74 74 61 58 58 65 77 81 61 71 68 39 68 77 74 74 74 87 84 74 77 58 58 52 58 58 52 68 84 77 77
77 71 74 74 74 77 74 77 87 87 81 77 65 65 52 48 52 52 71 55 52 65 52 58 61 61 74 77 19 29 74 74 87 71 55 61 65 65 68 48 65 65 71
74 68 71 68 74 74 74 81 74 71 68 74 65 55 48 48 45 48 58 48 42 61 45 35 32 32 45 45 42 42 48 52 68 81 68 52 52 52 58 65 65 61 58
77 68 71 74 74 74 77 77 71 68 61 61 58 48 45 42 45 35 55 52 42 58 39 29 26 48 42 32 29 32 32 39 58 29 61 52 35 48 48 42 55 58 42
71 61 55 65 61 68 71 65 61 68 58 48 58 52 45 39 45 48 39 39 45 48 45 39 35 32 32 29 32 29 26 23 23 29 35 45 52 39 39 42 45 52 42
65 58 61 65 58 55 58 55 52 42 39 52 61 52 42 35 32 26 29 29 32 39 58 35 19 32 35 29 35 35 35 35 19 16 29 32 45 39 23 16 26 52 42
58 52 58 58 55 55 58 52 55 48 52 52 55 55 48 35 26 19 19 23 26 32 32 23 29 26 35 32 26 32 26 35 26 19 13 10 19 29 39 39 35 32 32
55 52 52 58 58 58 55 52 48 39 45 55 52 45 35 32 23 16 13 26 26 23 23 16 19 16 26 29 39 26 26 26 13 16 16 23 23 26 26 42 29 35 42
Height
5878 5878 5879 5881 5882 5883 5884 5885 5886 5886 5886 5887 5887 5887 5886 5886 5886 5886 5885 5885 5885 5885 5885 5885 5885 5885 5885 5884 5884 5884 5884 5884 5884 5885 5885 5885 5885 5886 5886 5887 5888 5888 5889
5877 5878 5879 5880 5882 5883 5884 5885 5886 5886 5887 5887 5887 5887 5887 5887 5887 5886 5886 5886 5886 5886 5886 5886 5885 5885 5885 5885 5885 5885 5885 5885 5885 5885 5885 5885 5886 5886 5887 5888 5888 5889 5890
5876 5877 5878 5880 5881 5882 5884 5885 5886 5886 5887 5888 5888 5888 5887 5887 5887 5887 5887 5886 5886 5886 5886 5886 5886 5886 5886 5885 5885 5885 5885 5885 5885 5885 5886 5886 5887 5887 5888 5888 5889 5890 5891
5876 5877 5878 5879 5880 5882 5883 5884 5885 5886 5887 5888 5888 5888 5888 5888 5887 5887 5887 5887 5887 5886 5886 5886 5886 5886 5886 5886 5886 5886 5886 5886 5886 5886 5886 5887 5887 5888 5888 5889 5890 5891 5892
5875 5876 5877 5878 5880 5881 5883 5884 5885 5886 5887 5887 5888 5888 5888 5888 5888 5887 5887 5887 5887 5887 5887 5887 5886 5886 5886 5886 5886 5886 5886 5886 5887 5887 5887 5887 5888 5888 5889 5890 5891 5892 5893
5874 5875 5876 5877 5879 5880 5882 5883 5885 5886 5887 5887 5888 5888 5888 5888 5888 5888 5887 5887 5887 5887 5887 5887 5887 5886 5886 5886 5886 5886 5886 5887 5887 5887 5887 5888 5888 5889 5890 5890 5891 5892 5893
5873 5873 5874 5876 5877 5879 5880 5882 5884 5885 5886 5887 5887 5888 5888 5888 5888 5888 5887 5887 5887 5887 5887 5887 5887 5887 5886 5886 5886 5886 5887 5887 5887 5887 5888 5888 5889 5889 5890 5891 5892 5893 5894
5871 5872 5873 5874 5876 5877 5879 5881 5883 5884 5885 5886 5887 5887 5887 5887 5888 5887 5887 5887 5887 5887 5887 5887 5887 5887 5886 5886 5886 5886 5887 5887 5887 5887 5888 5889 5889 5890 5890 5891 5892 5893 5894
5869 5870 5871 5872 5874 5876 5878 5879 5881 5883 5884 5885 5886 5887 5887 5887 5887 5887 5887 5887 5887 5887 5887 5887 5887 5887 5886 5886 5886 5886 5887 5887 5887 5887 5888 5889 5889 5890 5891 5891 5893 5894 5895
5867 5868 5869 5870 5872 5874 5876 5878 5879 5881 5883 5884 5885 5886 5886 5887 5887 5887 5887 5887 5887 5887 5887 5887 5886 5886 5886 5886 5886 5886 5887 5887 5887 5888 5888 5889 5889 5890 5891 5892 5893 5894 5895
5864 5865 5865 5867 5869 5871 5874 5875 5878 5879 5881 5882 5884 5885 5885 5886 5886 5886 5886 5886 5886 5886 5886 5886 5886 5886 5886 5886 5886 5886 5886 5886 5887 5887 5887 5888 5889 5890 5891 5892 5893 5894 5895
5861 5862 5862 5864 5866 5869 5871 5873 5875 5877 5879 5881 5882 5883 5884 5885 5885 5886 5886 5886 5886 5886 5886 5886 5886 5885 5885 5885 5886 5886 5885 5885 5885 5886 5887 5888 5889 5890 5890 5892 5893 5894 5895
5858 5859 5859 5860 5863 5866 5868 5871 5873 5875 5877 5879 5881 5882 5883 5884 5884 5885 5885 5885 5885 5885 5885 5885 5885 5885 5885 5885 5885 5885 5884 5885 5885 5886 5886 5887 5888 5889 5890 5891 5892 5893 5894
5855 5856 5857 5858 5860 5863 5865 5868 5870 5873 5875 5877 5879 5880 5881 5883 5883 5884 5884 5884 5884 5884 5885 5885 5885 5885 5885 5885 5884 5884 5884 5885 5885 5886 5886 5886 5887 5888 5889 5890 5891 5892 5893
5852 5852 5853 5855 5857 5859 5862 5865 5868 5870 5873 5875 5877 5878 5880 5881 5882 5883 5883 5883 5883 5884 5884 5884 5884 5884 5884 5884 5884 5884 5884 5884 5884 5885 5885 5885 5886 5887 5888 5888 5889 5890 5891
5849 5848 5848 5850 5853 5855 5859 5862 5865 5868 5870 5873 5875 5877 5878 5880 5881 5882 5882 5882 5883 5883 5883 5883 5883 5883 5883 5883 5883 5883 5883 5884 5884 5884 5884 5884 5885 5886 5887 5888 5888 5889 5890
5846 5845 5845 5846 5849 5852 5855 5858 5861 5865 5868 5871 5873 5875 5877 5878 5879 5880 5881 5882 5882 5882 5882 5882 5882 5882 5882 5883 5883 5883 5883 5883 5883 5884 5884 5884 5885 5885 5886 5887 5887 5888 5889
5842 5842 5842 5844 5847 5849 5852 5855 5859 5862 5865 5868 5871 5873 5875 5877 5878 5879 5880 5881 5881 5881 5881 5881 5882 5882 5882 5882 5882 5882 5882 5883 5883 5883 5883 5883 5884 5885 5885 5885 5886 5887 5887
5839 5839 5840 5841 5844 5846 5849 5852 5855 5859 5863 5866 5869 5871 5873 5875 5877 5878 5879 5880 5880 5880 5881 5881 5881 5882 5882 5881 5882 5882 5882 5882 5883 5883 5883 5883 5884 5884 5884 5885 5885 5886 5886
5837 5837 5837 5838 5841 5843 5846 5849 5853 5856 5860 5863 5866 5869 5871 5873 5875 5876 5878 5879 5879 5880 5880 5881 5881 5881 5881 5881 5881 5882 5882 5882 5882 5882 5882 5883 5883 5884 5884 5884 5884 5885 5885
5835 5835 5835 5836 5838 5841 5844 5847 5850 5854 5857 5860 5863 5866 5869 5871 5873 5875 5877 5877 5878 5879 5880 5880 5881 5881 5881 5881 5881 5881 5882 5881 5882 5882 5882 5883 5883 5883 5884 5884 5884 5884 5884
5834 5833 5834 5834 5836 5838 5841 5844 5847 5851 5854 5857 5860 5863 5866 5869 5871 5873 5875 5876 5877 5878 5879 5880 5880 5880 5881 5881 5881 5881 5882 5882 5882 5882 5882 5882 5883 5883 5883 5883 5883 5883 5883
5832 5832 5832 5832 5834 5836 5839 5841 5845 5848 5851 5854 5858 5861 5864 5866 5869 5871 5873 5875 5876 5877 5878 5879 5879 5880 5880 5880 5881 5881 5882 5882 5882 5882 5882 5882 5882 5883 5883 5883 5883 5883 5883
5830 5830 5830 5831 5832 5834 5836 5839 5842 5845 5848 5852 5855 5858 5861 5863 5866 5869 5871 5873 5874 5875 5877 5877 5878 5879 5879 5880 5880 5880 5881 5881 5881 5881 5882 5881 5882 5882 5882 5882 5882 5882 5882
5829 5828 5828 5828 5830 5832 5834 5836 5839 5842 5845 5849 5852 5855 5858 5861 5864 5866 5869 5870 5872 5874 5875 5876 5877 5877 5878 5879 5879 5880 5880 5880 5880 5880 5881 5881 5881 5881 5881 5881 5881 5881 5881
5827 5826 5826 5826 5828 5829 5832 5834 5836 5839 5842 5846 5849 5853 5856 5858 5861 5864 5866 5868 5870 5871 5873 5874 5875 5876 5876 5877 5878 5878 5878 5879 5879 5879 5879 5879 5879 5879 5879 5880 5880 5880 5880
Wind_Speed
8 9 10 9 9 9 8 7 7 6 6 5 5 4 3 2 3 3 3 3 3 3 3 3 3 2 2 2 2 2 2 2 2 2 2 2 3 3 4 5 6 6 7
9 10 10 10 11 11 9 8 7 7 6 6 5 4 3 2 2 2 2 2 2 2 2 2 2 2 2 1 1 1 2 2 1 1 1 2 3 3 4 5 6 6 6
10 11 11 11 12 11 10 9 8 7 7 7 6 5 3 2 1 1 1 2 2 2 1 1 1 1 1 1 1 1 1 1 1 1 1 2 3 3 5 5 6 6 6
11 11 12 12 12 12 11 10 9 8 8 8 7 5 4 2 1 0 1 1 1 2 1 1 1 1 1 0 0 0 1 1 1 1 2 3 3 4 5 5 5 6 6
11 12 12 13 13 12 12 11 9 9 9 8 7 6 4 3 2 1 0 1 1 1 1 1 1 0 0 0 1 1 1 0 0 1 2 3 3 4 5 5 5 5 5
10 12 13 13 13 12 12 11 10 9 9 9 8 7 5 4 3 1 1 1 1 1 1 1 1 1 1 1 1 1 1 1 0 1 1 3 4 5 5 5 4 5 5
10 12 13 13 13 13 12 11 11 10 10 9 8 8 6 5 4 2 1 1 1 1 1 1 1 1 1 2 2 1 1 1 1 1 2 2 4 4 5 5 4 4 5
11 12 13 14 14 14 13 12 12 11 10 10 9 8 7 5 4 3 2 2 2 1 1 1 2 2 2 2 2 2 2 1 1 2 2 2 3 4 5 4 4 4 3
12 13 14 14 15 15 14 14 13 13 12 11 10 9 7 6 5 4 3 2 2 2 2 2 2 2 2 3 3 3 3 3 3 2 3 3 3 3 4 4 4 4 4
11 13 15 15 16 16 16 15 15 14 13 12 11 10 8 6 5 4 4 3 3 2 2 3 3 2 3 3 4 4 4 4 3 3 3 3 3 4 4 4 5 5 4
11 12 15 16 16 16 17 16 16 15 14 13 12 11 9 8 7 6 5 4 4 3 3 3 3 3 3 3 3 3 4 4 4 4 4 4 4 5 5 5 5 5 5
13 13 15 15 16 17 18 18 17 16 15 13 12 12 10 9 8 7 6 5 4 4 4 4 4 3 3 3 4 4 4 4 4 5 5 5 5 5 6 7 7 7 6
14 14 15 15 16 18 19 19 19 17 16 14 13 12 11 10 9 7 7 6 5 5 5 4 4 4 3 3 4 4 4 4 5 6 6 6 6 6 6 8 8 8 7
15 15 16 16 16 17 19 20 20 18 17 15 13 12 11 10 9 7 7 6 6 5 5 5 4 4 4 3 4 4 4 4 5 5 6 6 6 6 6 7 8 8 9
15 16 17 17 17 17 19 21 20 18 18 16 14 13 11 10 9 8 7 6 6 5 5 5 4 4 4 3 3 4 4 4 5 5 6 5 7 7 7 7 7 8 9
16 17 17 18 18 19 20 20 21 19 18 16 15 13 12 10 9 8 7 6 5 5 5 4 4 3 3 3 3 3 3 3 4 4 4 4 5 6 7 6 6 7 8
16 17 16 17 17 19 20 20 20 20 18 17 16 14 12 10 9 8 7 6 5 5 4 4 3 3 3 3 3 2 3 3 3 4 4 4 5 6 6 6 5 5 6
15 15 14 15 17 18 20 21 20 20 18 17 16 14 13 11 9 8 7 6 5 4 4 4 3 2 2 2 2 2 2 3 3 3 3 4 4 4 5 5 5 5 5
13 13 13 13 15 16 18 19 20 19 19 18 17 15 14 12 10 8 8 6 5 4 4 3 2 2 2 1 1 1 2 2 2 2 2 2 3 3 4 4 4 5 5
12 12 12 12 14 15 16 18 19 20 19 19 18 16 15 13 11 9 8 7 5 4 4 3 3 2 2 1 1 1 2 1 2 2 2 2 2 3 3 3 3 4 4
12 11 11 11 13 16 16 16 18 18 19 19 19 18 16 14 11 10 9 7 6 5 4 3 3 2 1 1 1 1 1 1 0 1 1 1 2 2 3 3 3 3 4
11 10 10 10 12 14 15 16 17 18 19 19 19 18 16 15 12 10 9 8 6 5 5 4 3 3 2 1 1 1 1 1 0 1 1 2 2 3 3 3 3 4 5
11 10 10 10 11 13 15 16 17 18 19 19 19 19 18 16 13 12 10 9 8 7 6 5 4 4 3 2 1 1 1 1 1 1 1 2 2 3 3 4 4 4 4
10 9 10 11 11 12 14 16 18 18 18 19 19 19 18 16 14 13 11 10 9 9 8 7 6 5 4 3 2 2 2 2 1 2 2 2 3 3 4 4 4 5 5
10 9 10 9 10 12 14 15 17 18 18 19 19 19 18 17 16 14 13 12 12 11 9 8 8 7 6 5 4 4 4 3 3 3 3 4 4 5 5 5 5 5 6
9 9 8 9 9 11 13 14 16 17 17 18 18 18 18 17 16 15 14 14 13 12 11 10 10 9 8 8 7 7 6 6 6 6 6 6 6 7 7 7 7 8 7
Wind_Direction
223 217 209 204 201 202 207 209 212 214 215 213 203 188 167 138 108 91 85 81 81 82 84 87 85 78 68 76 87 89 87 102 107 92 85 91 103 111 114 117 119 117 118
230 224 221 214 211 212 216 215 219 225 226 224 216 204 187 159 117 87 77 75 74 75 73 77 82 75 62 76 85 81 87 107 114 112 115 118 121 122 124 121 125 121 123
239 232 226 222 219 218 219 219 225 230 229 229 227 220 208 194 156 92 75 70 68 65 62 64 81 67 59 77 78 82 96 105 114 136 153 147 143 136 136 131 128 128 127
245 239 230 225 223 221 220 222 227 232 233 234 233 228 222 219 206 141 68 54 54 59 61 68 78 55 58 82 121 122 129 134 95 149 159 153 147 146 143 138 134 135 131
247 241 235 230 226 224 224 224 225 232 235 236 237 235 231 235 236 237 336 16 29 44 51 55 44 29 31 204 221 228 225 209 258 222 179 165 154 158 153 144 141 142 138
251 242 237 233 230 227 228 225 228 233 237 239 240 239 240 248 248 250 284 324 2 21 16 10 357 336 292 253 238 249 243 234 241 236 192 172 164 166 163 155 150 148 143
253 242 235 234 233 232 231 227 230 233 237 240 242 243 246 251 252 252 265 289 316 336 314 303 306 312 297 271 253 256 251 250 237 235 200 181 174 174 174 163 157 154 150
255 241 234 232 233 233 232 231 232 232 234 239 242 244 247 249 251 253 255 273 294 305 298 293 293 291 288 277 262 257 254 257 223 228 213 193 179 190 183 173 171 170 164
258 244 239 234 232 231 231 231 231 231 231 237 242 244 247 248 249 253 258 269 282 293 301 299 295 288 278 271 269 264 261 260 237 227 218 215 200 193 197 191 186 188 185
259 248 242 236 234 231 229 229 230 232 233 236 241 244 248 250 251 253 259 269 281 294 304 310 303 293 284 274 271 268 263 263 244 254 249 237 226 218 217 214 208 207 202
259 252 245 239 235 232 229 229 229 231 232 236 241 244 246 249 252 255 260 270 278 287 296 308 309 302 288 278 276 270 261 261 258 259 256 254 246 239 233 225 221 214 213
266 253 249 240 237 232 230 229 229 230 231 236 241 242 244 248 252 257 262 270 276 279 285 297 303 297 290 284 284 269 257 261 257 262 260 260 257 253 243 238 233 228 230
267 257 249 244 242 234 231 230 228 228 230 234 241 241 243 245 249 257 262 270 273 277 283 287 291 293 286 283 278 269 255 263 266 264 263 264 258 256 255 246 240 237 235
271 264 255 243 243 238 230 228 226 224 226 230 238 237 238 241 245 254 261 268 273 277 284 288 286 287 278 278 283 276 268 277 273 270 272 266 253 253 254 251 250 246 238
274 266 256 247 241 237 231 227 224 222 223 229 234 235 236 242 244 247 263 272 278 283 285 285 282 278 276 274 280 280 277 272 266 272 275 265 256 254 260 258 256 249 243
277 272 260 251 243 235 229 228 225 223 224 228 233 235 235 239 244 252 266 274 282 287 285 282 278 275 277 276 278 277 279 278 280 290 275 265 261 259 261 262 261 253 247
282 273 261 250 242 232 230 230 227 224 227 229 230 231 233 237 245 251 259 267 278 285 283 277 275 279 282 277 276 280 283 288 294 295 278 266 265 268 260 259 262 259 259
283 270 262 250 241 233 230 230 230 227 228 228 228 229 231 234 238 246 254 260 270 277 277 274 275 274 274 275 279 286 291 295 300 302 279 271 277 287 277 263 261 261 269
283 273 261 250 239 234 232 229 228 228 227 226 225 227 230 232 236 244 249 255 261 270 268 261 254 251 265 285 306 310 310 309 314 319 305 293 296 294 296 284 269 271 279
290 281 267 253 240 234 232 233 232 228 223 223 224 226 228 230 233 237 245 248 248 252 256 250 237 242 261 281 299 312 322 336 334 333 328 324 320 304 309 304 286 281 287
298 289 273 258 243 235 232 233 229 226 221 223 226 224 226 229 231 232 238 240 238 237 240 242 230 233 248 275 293 307 328 345 1 351 339 326 326 329 327 322 311 301 306
296 286 273 260 248 236 232 231 227 224 222 220 220 219 221 225 227 228 231 233 233 232 234 235 230 231 239 253 297 331 329 345 33 26 6 339 337 341 336 331 326 334 337
297 280 268 258 247 239 235 230 226 224 222 221 220 219 220 221 222 223 227 230 232 232 231 231 231 228 232 236 242 281 321 322 326 350 1 346 344 344 343 345 347 342 342
301 286 271 253 243 237 235 230 226 225 222 220 221 218 218 217 218 223 226 228 230 230 230 231 234 233 236 238 246 262 281 296 319 322 329 327 329 328 329 336 339 346 345
301 288 277 256 242 237 232 229 223 222 222 222 220 220 217 217 219 224 226 228 229 231 230 232 237 240 241 244 251 261 274 283 293 299 303 308 312 313 316 319 321 322 322
310 295 273 248 242 237 232 228 224 222 222 220 220 220 219 219 220 223 225 228 230 232 233 236 239 243 245 248 253 260 269 276 282 285 288 292 295 297 299 301 303 306 306